www.pogodaiklimat.ru

Погода и климат >> Архив погоды >> Россия >> Магаданская область >> Среднекан


ПОГОДА в Среднекане

  • Прогноз погоды в Среднекане
  • Монитор погоды в Среднекане

АРХИВ ПОГОДЫ в Среднекане

Время (UTC), дата Ветер
(напр.,м/с)
 
Видим.   Явления Облачность Т
(С)
Тd
(С)
f
(%)
Тe
(С)
Тes
(С)
Комфортность P
(гПа)
Po
(гПа)
Тmin
(С)
Tmax
(С)
R
(мм)
R24
(мм)
S
(см)
12 11.06 Ю 2 н/о н/о +14.4 +1.0 40 +14 +14 1011.3 980.5
15 11.06 В 2 50 км 3/0
[Ci fib]
+7.4 +2.4 71 +6 +6 1013.0 981.3
18 11.06 В 2 н/о н/о +6.4 +2.2 74 +4 +4 1013.8 982.0
21 11.06 ЮВ 2 50 км 9/0
[Ci fib]
+15.6 +4.0 46 +16 +20 1012.7 982.0 +5.7
00 12.06 Ю 2 н/о н/о +18.6 +1.8 32 +19 +19 1011.2 980.7
03 12.06 ЮЗ 2 50 км 10/4 1000 м
[Cu hum Cs]
+21.4 +0.8 25 +21 +27 комфорт 1009.2 979.1
06 12.06 Ю 3 н/о н/о +21.8 -0.5 23 +21 +21 комфорт 1008.2 978.2
09 12.06 Ю 3 20 км дым 10/1 1000 м
[Cu hum Cs]
+19.8 0.0 26 +20 +21 1008.6 978.4 +22.1
12 12.06 Ю 1 н/о н/о +13.5 +0.8 42 +14 +14 1010.4 979.5
15 12.06 В 1 20 км дым 10/0
[Ac lent Ci fib]
+9.4 +2.2 61 +9 +9 1011.8 980.4
18 12.06 В 2 н/о н/о +9.8 +3.5 65 +9 +9 1012.5 981.1
21 12.06 ЮВ 2 н/о н/о +16.2 +4.0 44 +16 +21 1011.9 981.2 +8.3
00 13.06 Ю 2 н/о н/о +18.8 +2.2 33 +20 +20 1011.1 980.7
03 13.06 Ю 2 20 км дым 8/5 1000 м
[Cu med, cong Ci fib]
+20.7 +1.4 28 +22 +27 комфорт 1009.9 979.7
06 13.06 Ю 3 н/о н/о +20.7 +0.6 26 +21 +21 комфорт 1009.4 979.3
09 13.06 ЮВ 1 20 км дым 10/6 1000 м
[Sc Ac trans Cs]
+17.6 +3.8 40 +19 +19 1010.4 980.0 +21.6
12 13.06 В 1 н/о н/о +11.7 +2.6 54 +12 +12 1011.8 980.6
15 13.06 В 3 20 км дым 10/0
[Ci fib]
+6.7 +2.1 72 +4 +4 1012.8 981.1
18 13.06 В 2 н/о н/о +7.2 +1.6 68 +5 +5 1013.2 981.5
21 13.06 ЮВ 1 20 км дым 10/0
[Cs]
+15.7 +3.4 44 +17 +21 1012.1 981.4 +6.4
00 14.06 ЮВ 2 н/о н/о +19.6 +0.6 28 +20 +20 1010.7 980.4
03 14.06 Ю 4 20 км дым 3/0
[Ci fib]
+22.5 -4.3 16 +21 +29 комфорт 1009.4 979.4
06 14.06 Ю 3 н/о н/о +23.3 -4.1 16 +21 +21 комфорт 1008.5 978.6
09 14.06 Ю 2 20 км дым 5/1 1000 м
[Cu hum Ci fib]
+22.0 -3.4 18 +21 +22 комфорт 1008.9 978.9 +23.4
12 14.06 В 2 н/о н/о +11.9 +2.1 51 +11 +11 1011.3 980.2
15 14.06 ЮВ 1 20 км дым 10/0
[Ci fib]
+7.2 +1.1 65 +7 +7 1013.4 981.7
18 14.06 Ю 1 н/о н/о +4.3 +0.7 77 +3 +3 1015.0 982.9
21 14.06 ЮВ 1 20 км дым 10/0
[Ci fib]
+15.7 +4.4 47 +17 +21 1014.5 983.7 +3.5
00 15.06 З 1 н/о н/о +21.7 +1.2 26 +21 +21 комфорт 1013.4 983.2
03 15.06 штиль 0 20 км дым 10/6 1000 м
[Cu med, cong Ci fib]
+22.2 -0.2 23 +22 +27 комфорт 1012.3 982.2
06 15.06 СВ 1 н/о н/о +24.6 +0.6 21 +23 +23 комфорт 1011.2 981.4
09 15.06 СЗ 1 20 км дым 10/4 1000 м
[Sc Ci fib]
+23.8 +2.8 25 +23 +24 комфорт 1011.3 981.5 +25.7
12 15.06 В 1 н/о н/о +14.8 +3.8 48 +15 +15 1013.4 982.5
15 15.06 В 1 20 км дым 10/4 1000 м
[Cu med, cong Ac trans Ci fib]
+10.1 +3.5 64 +10 +10 1015.1 983.7
18 15.06 В 1 н/о н/о +6.7 +2.5 75 +6 +6 1016.2 984.4
21 15.06 В 1 20 км дым 10/0
[Ac trans Ci fib]
+18.0 +4.0 39 +19 +23 1014.8 984.3 +6.6
00 16.06 С 1 н/о н/о +22.0 +2.4 27 +22 +22 комфорт 1013.5 983.4
03 16.06 ЮВ 2 20 км дым 10/3 1000 м
[Cu hum Ci fib]
+24.6 -0.6 19 +23 +30 комфорт 1011.6 981.8
06 16.06 Ю 4 н/о н/о +23.3 -3.2 17 +22 +22 комфорт 1010.7 980.8
09 16.06 ЮВ 2 20 км дым 10/0
[Ac trans Cs]
+19.0 +0.1 28 +20 +20 1011.5 981.1 +25.4
12 16.06 Ю 2 н/о н/о +14.9 +1.3 40 +15 +15 1012.7 981.9
15 16.06 В 1 20 км слаб. ливневой дождь 10/10 1000 м
[Cb cap]
+10.4 +7.7 83 +10 +10 1014.1 982.8
18 16.06 ЮВ 2 н/о н/о +9.9 +4.3 68 +9 +9 1014.5 983.1
21 16.06 ЮВ 2 20 км дым 4/3 1000 м
[Cu med, cong Ci sp]
+13.6 +2.0 45 +13 +17 1014.4 983.4 +8.6 0.4
00 17.06 ЮВ 3
{10}
н/о н/о +16.6 +0.7 34 +16 +16 1013.7 983.0
03 17.06 ЮВ 3 50 км 10/1 1000 м
[Cu hum Ac trans Cs]
+16.8 +0.1 32 +17 +22 1013.3 982.6
06 17.06 ЮВ 3 н/о н/о +14.1 +0.4 39 +13 +13 1014.1 983.1
09 17.06 ЮВ 2 50 км 10/6 1000 м
[Cb cap As trans]
+12.9 +2.7 50 +12 +13 1014.0 982.9 +18.5
12 17.06 ЮВ 1 н/о н/о +11.4 +3.8 60 +11 +11 1014.1 982.9
15 17.06 В 1 20 км слаб. ливневой дождь 10/6 1000 м
[Cb cap Ac und]
+8.7 +5.8 82 +8 +8 1013.8 982.3
18 17.06 Ю 1 н/о н/о +8.2 +6.1 87 +7 +7 1013.3 981.8
21 17.06 ЮЗ 1 20 км слаб. ливневой дождь 10/10 1000 м
[Cb cap]
+9.9 +7.5 85 +9 +9 1013.0 981.7 +7.9 0.3
00 18.06 ЮЗ 1 н/о н/о +11.0 +9.2 89 +11 +11 1012.8 981.6
03 18.06 С 2 20 км слаб. ливневой дождь 10/10 1000 м
[Cb cap]
+13.6 +9.1 74 +13 +13 1011.4 980.5
06 18.06 С 1 н/о н/о +14.2 +9.4 73 +15 +15 1010.5 979.7

 

Местоположение метеостанции Среднекан (Магаданская область, Россия): широта 62.45 долгота 152.30 высота над уровнем моря 260 м.

В архиве по умолчанию представлена погода в Среднекане за последнюю неделю. Архивные данные за месяц целиком и за предыдущие месяцы, начиная с января 2011 года, Вы можете получить, выбрав интересующий диапазон дат из раскрывающегося списка и нажав кнопку "Ввод!".


*Определитесь, кто Вы:
робот инопланетянин человек

Внимание! Время в таблицах - всемирное. Для получения местного времени необходимо прибавить поправку, которая равна 11 ч.

Смотрите также архив погоды в соседних городах и на ближайших метеорологических станциях:

Погода в Сеймчане (Магаданская область, Россия) (51 км)
Погода в Совхозе Эльген (Магаданская область, Россия) (95 км)
Погода в Усть-Бохапче (Магаданская область, Россия) (96 км)
Погода в Ягодной (Магаданская область, Россия) (139 км)
Погода в Талой (Магаданская область, Россия) (147 км)
Погода на Озере Джека Лондона (Магаданская область, Россия) (151 км)
Погода в Омсукчане (Магаданская область, Россия) (180 км)
Погода в Балыгычане (Магаданская область, Россия) (186 км)
Погода в Усть-Омчуге (Магаданская область, Россия) (205 км)
Погода в Сусумане (Магаданская область, Россия) (218 км)

Пояснения к столбцам:

Ветер - указаны скорость ветра в м/с - средняя за 10 мин, порывы в срок и между сроками (в фигурных скобках) и направление, откуда дует ветер: С - северный, СВ - северо-восточный, В - восточный, ЮВ - юго-восточный, Ю - южный, ЮЗ - юго-западный, З - западный, СЗ - северо-западный.
Видимость - горизонтальная дальность видимости в метрах или километрах. При видимости от 1 до 10 км при отсутствии осадков обычно наблюдается дымка, при ухудшении видимости до 1 км и менее - туман. В сухую погоду видимость может ухудшаться дымом, пылью или мглою.
Явления - указаны атмосферные явления, наблюдавшиеся в срок или в последний час перед сроком; фигурными скобками обозначены явления, наблюдавшиеся между сроками (за 1-3 часа до срока); квадратными скобками обозначены град или гололедные отложения с указанием их диаметра в мм.
Облачность - указаны через наклонную черту общая и нижняя облачность в баллах и высота нижней границы облаков в метрах; квадратными скобками обозначены формы облаков: Ci - перистые, Cs - перисто-слоистые, Cc - перисто-кучевые, Ac - высококучевые, As - высокослоистые, Sc - слоисто-кучевые, Ns - слоисто-дождевые, Cu - кучевые, Cb - кучево-дождевые. Подробнее классификацию облаков см. в Атласе облаков (PDF).
T - Температура воздуха - температура, измеренная на высоте 2 м над землей.
Td - Температура точки росы - температура, при понижении до которой содержащийся в воздухе водяной пар достигнет насыщения.
f - Относительная влажность воздуха - влажноcть воздуха, измеренная на высоте 2 м над землей.
Te - Эффективная температура - температура, которую ощущает одетый по сезону человек в тени. Характеристика душности погоды. При расчете учитывается влияние влажности воздуха и скорости ветра на теплоощущения человека.
Tes - Эффективная температура на солнце - температура, которую ощущает человек, с поправкой на солнечный нагрев. Характеристика знойности погоды. Зависит от высоты солнца над горизонтом, облачности и скорости ветра. Ночью, в пасмурную погоду, а также при ветре 12 м/с и более поправка равна нулю.
P - Атмосферное давление - приведенное к уровню моря атмосферное давление.
Po - Атмосферное давление - измеренное на уровне метеостанции атмосферное давление.
Tmin - Минимальная температура - минимум температуры воздуха на высоте 2 м над землей.
Tmax - Максимальная температура - максимум температуры воздуха на высоте 2 м над землей.
R - Количество осадков - Количество выпавших осадков за период времени, мм. При наведении курсора мыши на число - период времени, за который выпало указанное количество осадков.
R24 - Количество осадков - Количество выпавших осадков за 24 часа, мм.
S - Снежный покров - Высота снежного покрова, см. При наведении курсора мыши на число - состояние снежного покрова и степень покрытия местности в баллах.